Weather History for GEML - March, 2013

Change the Weather History Date:

Sunday, March 10, 2013

  Actual Average Record
Temperature  
Mean Temperature 60 °F -  
Max Temperature 66 °F 67 °F 73 °F (2001)
Min Temperature 53 °F 55 °F 44 °F (2015)
Degree Days  
Heating Degree Days 6    
Growing Degree Days 10 (Base 50)    
Moisture  
Dew Point 52 °F    
Average Humidity 72    
Maximum Humidity 94    
Minimum Humidity 49    
Precipitation  
Precipitation 0.00 in 0.05 in - ()
Sea Level Pressure  
Sea Level Pressure 29.92 in    
Wind  
Wind Speed 4 mph ()    
Max Wind Speed 12 mph    
Max Gust Speed -    
Visibility 7.2 miles    
Events      
Averages and records for this station are not official NWS values.
T = Trace of Precipitation, MM = Missing Value Source: Averaged Metar Reports

Daily Weather History Graph

Daily Weather History Graph

Search for Another Location

Airport or City:

Trip Planner

Search our weather history database for the weather conditions in past years. The results will help you decide how hot, cold, wet, or windy it might be!

Date:

Astronomy

Mar. 10, 2013 Rise Set
Actual Time 7:29 AM CET 7:15 PM CET
Civil Twilight 7:04 AM CET 7:40 PM CET
Nautical Twilight 6:34 AM CET 8:10 PM CET
Astronomical Twilight 6:05 AM CET 8:39 PM CET
Moon 6:18 AM CET (3/10) 6:08 PM CET (3/10)
Length of Visible Light 12h 36m
Length of Day
11h 45m
Waning Crescent, 2% of the Moon is Illuminated
Mar 10
Waning Crescent
Mar 11
New
Mar 19
First Quarter
Mar 27
Full
Apr 3
Last Quarter

Hourly Weather History & Observations

Time (CET) Temp. Dew Point Humidity Pressure Visibility Wind Dir Wind Speed Gust Speed Precip Events Conditions
6:00 AM 55.4 °F 53.6 °F 94% 29.92 in 6.2 mi WSW 3.5 mph - N/A   Scattered Clouds
6:30 AM 55.4 °F 53.6 °F 94% 29.92 in 6.2 mi Variable 1.2 mph - N/A   Partly Cloudy
7:00 AM 55 °F 49 °F 73% 29.91 in 19 mi NW 3.5 mph - -   Scattered Clouds
7:00 AM 55.4 °F 51.8 °F 88% 29.92 in 6.2 mi NW 3.5 mph - N/A   Partly Cloudy
7:30 AM 55.4 °F 51.8 °F 88% 29.89 in 6.2 mi WSW 3.5 mph - N/A   Partly Cloudy
8:00 AM 53.6 °F 51.8 °F 94% 29.92 in 6.2 mi NW 2.3 mph - N/A   Partly Cloudy
8:30 AM 57.2 °F 55.4 °F 94% 29.92 in 6.2 mi Calm Calm - N/A   Partly Cloudy
9:00 AM 55.4 °F 53.6 °F 94% 29.92 in - NW 2.3 mph - N/A   Clear
9:30 AM 59.0 °F 55.4 °F 88% 29.95 in - Variable 1.2 mph - N/A   Clear
10:00 AM 60.8 °F 57.2 °F 88% 29.95 in - Calm Calm - N/A   Clear
10:30 AM 60.8 °F 55.4 °F 82% 29.95 in - ESE 6.9 mph - N/A   Clear
11:00 AM 62.6 °F 53.6 °F 72% 29.95 in - East 3.5 mph - N/A   Clear
11:30 AM 62.6 °F 53.6 °F 72% 29.95 in - Calm Calm - N/A   Clear
12:00 PM 64.4 °F 50.0 °F 59% 29.95 in 6.2 mi West 9.2 mph - N/A   Partly Cloudy
12:30 PM 64.4 °F 53.6 °F 68% 29.95 in 6.2 mi WNW 6.9 mph - N/A   Partly Cloudy
1:00 PM 64 °F 49 °F 49% 29.95 in 25 mi WNW 10.4 mph - -   Scattered Clouds
1:00 PM 62.6 °F 51.8 °F 68% 29.95 in 6.2 mi WNW 10.4 mph - N/A   Partly Cloudy
1:30 PM 64.4 °F 51.8 °F 64% 29.92 in 6.2 mi WSW 9.2 mph - N/A   Partly Cloudy
2:00 PM 64.4 °F 50.0 °F 59% 29.92 in - WSW 6.9 mph - N/A   Clear
2:30 PM 66.2 °F 48.2 °F 52% 29.92 in - SW 6.9 mph - N/A   Clear
3:00 PM 66.2 °F 46.4 °F 49% 29.89 in - West 8.1 mph - N/A   Clear
3:30 PM 66.2 °F 48.2 °F 52% 29.89 in - West 9.2 mph - N/A   Clear
4:00 PM 64.4 °F 48.2 °F 56% 29.89 in - West 10.4 mph - N/A   Clear
4:30 PM 62.6 °F 51.8 °F 68% 29.89 in - WNW 9.2 mph - N/A   Clear
5:00 PM 62.6 °F 50.0 °F 63% 29.89 in - West 8.1 mph - N/A   Clear
5:30 PM 62.6 °F 51.8 °F 68% 29.89 in - West 8.1 mph - N/A   Clear
6:00 PM 62.6 °F 50.0 °F 63% 29.89 in - West 8.1 mph - N/A   Clear
6:30 PM 60.8 °F 50.0 °F 68% 29.92 in - WNW 11.5 mph - N/A   Clear
7:00 PM 60 °F 52 °F 66% 29.94 in 25 mi West 9.2 mph - -   Scattered Clouds
7:00 PM 59.0 °F 51.8 °F 77% 29.95 in 6.2 mi West 9.2 mph - N/A   Partly Cloudy
7:30 PM 59.0 °F 51.8 °F 77% 29.95 in 6.2 mi West 8.1 mph - N/A   Partly Cloudy